THOR ABLESTAR DEB, 2620

Orbit data source: Space-Track

THOR ABLESTAR DEB, 2620 is space debris in LEO originally from a launch on Thu, 05 Dec 1963 UTC launched from the Air Force Western Test Range (AFWTR). Debris objects in space refer to the collection of defunct objects orbiting the Earth. Examples of debris include non-operational satellites, rocket bodies, and fragments generated from explosions, collisions, or faulty payload assembly.

Loading next visibility...
Identifier
2620, 1963-049H
Orbit
LEO
Last TLE update
20 hours ago
Origin
Manufacturer
Unknown
Mission
Spacecraft
Bus & Motor
Unknown
Mass
Unknown
Launch date (UTC)
1963-12-05 (62 years ago)
Launch vehicle
Unknown
Launch site
Air Force Western Test Range (AFWTR)
Object type
Payload
Rocket body
Debris
Shape & HBR
Unknown
Radar Cross Section
Small (<0.1 m²)

Expand to show TLE details & history

TLE from 20 hours ago
0 THOR ABLESTAR DEB
1 02620U 63049H   25166.71247435  .00000224  00000-0  28849-3 0  9997
2 02620  89.9163  75.7077 0017753  90.3863 298.8245 13.59542709 40594
Epoch: 2025-06-15T17:05Z
TLE epoch observation values (Epoch: 2025-06-15T17:05:57.783Z)
Latitude
29.07634°
Longitude
-84.97039°
Altitude
1,034.7 km
Speed
7.34 km/s
True Right ascension
05h 03m 00s
True Declination
28° 56' 09"
Sunlit
Object was in daylight at epoch
Visualization orbit readout
Latitude
79.02447°
Longitude
94.54688°
Altitude
1,037.897 km
Speed
7.346 km/s
Apparent Right ascension
12h 34m 11s
Apparent Declination
31° 06' 36"
Sunlit
Object is in daylight
Visualization observer readout
Local Sidereal Time
23:32:35
Azimuth
346.207° N
Elevation
-17.552°
Doppler factor
1
Orbital elements
Apogee altitude
1,047.55 km
Perigee altitude
1,021.231 km
Semi-major axis
7,412.527 km
Eccentricity
0.00178
Inclination
89.9163°
RAAN
75.7077°
Arg. of periapsis
90.3863°
True anomaly
Unknown
Mean anomaly
298.8245°
Eccentric anomaly
Unknown
Mean motion
3.4009 °/min
Orbital period
105.85 mins
BSTAR
0.00028849
Loading maneuver chart data...
Loading SW <> Apogee altitude chart data...
Loading historical data...
Loading historical data...
Loading historical data...
Loading historical data...
Loading historical data...
Loading historical data...
Loading historical data...

THOR ABLESTAR DEB Visibility forecast

Observer location: undefined°, undefined°

Span
Click to sort rows by Start time (UTC) header in descending order
Start Az.
Max El. time (UTC)
Max El. Az.
Max El.
End time (UTC)
End Az.
12 mins2025-06-16 17:46:53.177Z156.982° SSE2025-06-16 17:52:53.177Z88.134° E38.801°2025-06-16 17:58:53.177Z8.394° NNE
8 mins2025-06-16 19:35:53.177Z241.587° WSW2025-06-16 19:38:53.177Z276.229° WNW21.17°2025-06-16 19:43:53.177Z328.949° NNW
7 mins2025-06-17 04:54:53.177Z45.686° ENE2025-06-17 04:57:53.177Z79.604° E19.474°2025-06-17 05:01:53.177Z121.85° SE
11 mins2025-06-17 06:38:53.177Z351.806° N2025-06-17 06:43:53.177Z283.738° WNW40.606°2025-06-17 06:49:53.177Z200.379° SSW
|